Home > Weather > Bloomington > Past weeks

Flag for USA Past Weather in Bloomington, Indiana, USA — Yesterday and Last 2 Weeks

Now
81 °F

Sunny.


Feels Like: 82 °F
Forecast: 58 / 80 °F
Wind: 10 mph from South

Location: Monroe County Airport

Current Time: Aug 23, 2016 at 5:07:46 PM

Latest Report: Aug 23, 2016 at 3:53 PM


Visibility: 10 mi

Pressure: 30.21 "Hg

Humidity: 49%

Dew Point: 60 °F

Location of BloomingtonLocation

Past Weather in Bloomington — Graph

°F

Bloomington Temperature Yesterday

Maximum temperature yesterday: 78 °F (at 3:53 PM)
Minimum temperature yesterday: 55 °F (at 5:53 AM)
Average temperature yesterday: 66 °F

High & Low Weather Summary for the Past Weeks

 TemperatureHumidityPressure
High89 °F (Aug 11, 2:53 PM)97% (Aug 23, 6:57 AM)30.27 "Hg (Aug 23, 6:57 AM)
Low55 °F (Aug 22, 5:53 AM)46% (Aug 8, 3:53 PM)29.68 "Hg (Aug 20, 3:53 PM)
Average75 °F82%30.01 "Hg
* Reported Aug 8 3:53 PM — Aug 23 3:53 PM, Bloomington, Weather by CustomWeather, © 2016

Note: Actual official high and low records may vary slightly from our data, if they occured in-between our weather recording intervals... More about our weather records

Advertising

Bloomington Weather History for the Previous 24 Hours

Scroll right to see more
 ConditionsComfort  
Time TempWeatherWind HumidityBarometerVisibility
3:53 PM
Tue, Aug 23
81 °FSunny.10 mph49%30.21 "Hg10 mi
2:53 PM81 °FPassing clouds.10 mph49%30.22 "Hg10 mi
1:53 PM80 °FPassing clouds.8 mph51%30.23 "Hg10 mi
12:53 PM79 °FScattered clouds.7 mph50%30.26 "Hg10 mi
11:53 AM77 °FPassing clouds.6 mph56%30.27 "Hg10 mi
10:53 AM75 °FSunny.8 mph60%30.27 "Hg10 mi
9:53 AM71 °FSunny.6 mph68%30.27 "Hg10 mi
8:53 AM66 °FSunny.3 mph84%30.26 "Hg10 mi
7:53 AM59 °FClear.No wind96%30.24 "Hg7 mi
6:57 AM56 °FFog.No wind97%30.24 "Hg1 mi
5:53 AM58 °FFog.No wind93%30.22 "Hg5 mi
4:53 AM58 °FClear.No wind93%30.22 "Hg10 mi
3:53 AM57 °FFog.No wind93%30.22 "Hg3 mi
2:53 AM58 °FClear.No wind93%30.22 "Hg8 mi
1:53 AM59 °FClear.No wind93%30.22 "Hg8 mi
12:53 AM59 °FClear.No wind93%30.22 "Hg10 mi
11:53 PM
Mon, Aug 22
60 °FClear.No wind93%30.22 "Hg10 mi
10:53 PM61 °FClear.No wind93%30.21 "Hg10 mi
9:53 PM63 °FClear.No wind90%30.20 "Hg10 mi
8:53 PM66 °FSunny.No wind90%30.17 "Hg10 mi
7:53 PM73 °FSunny.No wind76%30.16 "Hg10 mi
6:53 PM76 °FSunny.3 mph58%30.16 "Hg10 mi
5:53 PM78 °FBroken clouds.7 mph50%30.17 "Hg10 mi
Weather by CustomWeather, © 2016

See weather overviewHow to use our weather pages